FW8022 Weather Reports


time (UTC)temp
C
wind
direction
speed
KPH
gust
KPH
rain 1hr
cm
rain 24hr
cm
rain mn
cm
humidity
%
barometer
mb
20260506084545 12 290 3.2 6.4 0.00 0.28 0.00 88 1017.4
20260506084037 12 277 1.6 6.4 0.00 0.28 0.00 88 1017.5
20260506083539 12 0 1.6 6.4 0.00 0.28 0.00 88 1017.5
20260506083052 13 286 3.2 6.4 0.00 0.28 0.00 88 1017.5
20260506082540 13 289 1.6 6.4 0.00 0.28 0.00 88 1017.6
20260506082038 13 280 1.6 6.4 0.00 0.28 0.00 88 1017.5
20260506081552 13 265 0.0 6.4 0.00 0.28 0.00 88 1017.6
20260506081040 13 279 1.6 6.4 0.00 0.28 0.00 88 1017.6
20260506080538 13 285 1.6 6.4 0.00 0.28 0.00 88 1017.6
20260506073053 13 327 0.0 6.4 0.00 0.33 0.00 88 1017.3
20260506072538 13 280 1.6 6.4 0.00 0.33 0.00 87 1017.4
20260506072037 13 283 3.2 6.4 0.00 0.33 0.00 87 1017.3
20260506071544 13 289 1.6 6.4 0.00 0.33 0.00 87 1017.3
20260506071038 13 295 1.6 8.0 0.00 0.33 0.00 87 1017.3
20260506070538 13 0 1.6 9.7 0.00 0.33 0.00 87 1017.3
20260506062038 13 278 1.6 4.8 0.00 0.36 0.33 87 1017.0
20260506061556 13 261 0.0 6.4 0.00 0.36 0.33 87 1017.1
20260506061041 13 261 1.6 6.4 0.00 0.36 0.33 88 1017.0
20260506060538 13 0 1.6 6.4 0.00 0.36 0.33 88 1017.0
20260506051042 13 279 1.6 6.4 0.00 0.41 0.33 90 1016.8
20260506050538 13 244 1.6 6.4 0.00 0.41 0.33 90 1016.7
20260506045040 13 237 0.0 6.4 0.00 0.41 0.33 90 1016.7
20260506044552 13 237 1.6 6.4 0.00 0.41 0.33 90 1016.6
20260506044037 13 225 1.6 6.4 0.00 0.41 0.33 90 1016.6
20260506043538 13 225 1.6 6.4 0.00 0.41 0.33 90 1016.6
20260506043043 13 240 1.6 4.8 0.00 0.41 0.33 90 1016.5
20260506042537 13 245 1.6 6.4 0.00 0.41 0.33 90 1016.4
20260506042039 13 242 1.6 6.4 0.00 0.41 0.33 90 1016.4
20260506041545 13 242 1.6 6.4 0.00 0.41 0.33 90 1016.2
20260506041037 13 242 1.6 6.4 0.00 0.41 0.33 90 1016.2
20260506040537 13 223 3.2 6.4 0.00 0.41 0.33 90 1016.1
20260506040051 13 240 1.6 6.4 0.00 0.41 0.33 90 1016.0
20260506035538 13 240 3.2 6.4 0.00 0.41 0.33 90 1015.9
20260506035036 13 0 1.6 4.8 0.00 0.41 0.33 90 1015.9
20260506034547 13 216 1.6 6.4 0.00 0.41 0.33 90 1015.8
20260506034036 13 228 1.6 6.4 0.00 0.41 0.33 90 1015.7
20260506033537 13 238 1.6 4.8 0.00 0.41 0.33 90 1015.6
20260506033045 13 238 1.6 6.4 0.00 0.41 0.33 90 1015.6
20260506032538 13 238 1.6 6.4 0.00 0.41 0.33 90 1015.5
20260506032040 13 224 1.6 6.4 0.00 0.41 0.33 89 1015.4
20260506031544 13 244 3.2 6.4 0.00 0.41 0.33 89 1015.5
20260506031038 13 243 3.2 6.4 0.00 0.41 0.33 89 1015.3
20260506030539 13 225 3.2 6.4 0.00 0.41 0.33 89 1015.4
20260506030044 13 232 3.2 6.4 0.00 0.41 0.33 89 1015.3
20260506025538 13 224 3.2 6.4 0.00 0.41 0.33 89 1015.3
20260506025037 13 231 3.2 6.4 0.00 0.41 0.33 89 1015.3
20260506024545 13 232 3.2 6.4 0.00 0.41 0.33 88 1015.2
20260506024037 13 244 3.2 8.0 0.00 0.41 0.33 88 1015.2
20260506023538 13 214 3.2 8.0 0.00 0.41 0.33 88 1015.2
20260506023053 13 219 3.2 8.0 0.00 0.41 0.33 88 1015.1
20260506022537 13 218 4.8 11.3 0.00 0.41 0.33 88 1015.1
20260506022038 13 240 4.8 11.3 0.00 0.41 0.33 88 1015.0
20260506021555 13 252 4.8 11.3 0.00 0.41 0.33 88 1015.0
20260506021041 13 235 4.8 11.3 0.00 0.41 0.33 88 1015.1
20260506020539 13 236 4.8 11.3 0.00 0.41 0.33 88 1015.0
20260506020047 13 232 3.2 8.0 0.00 0.41 0.33 87 1015.1
20260506015538 13 239 3.2 11.3 0.00 0.41 0.33 87 1015.1
20260506015039 13 254 4.8 11.3 0.00 0.41 0.33 87 1015.1
20260506014552 13 246 4.8 11.3 0.00 0.41 0.33 87 1015.0
20260506014037 13 228 4.8 11.3 0.00 0.41 0.33 87 1015.0
20260506013537 13 225 4.8 9.7 0.00 0.41 0.33 87 1015.2
20260506013043 13 245 3.2 8.0 0.00 0.41 0.33 86 1015.1
20260506012537 13 234 3.2 9.7 0.00 0.41 0.33 87 1015.1
20260506012039 13 236 4.8 11.3 0.00 0.41 0.33 86 1015.1
20260506011552 13 250 4.8 11.3 0.00 0.41 0.33 86 1015.0
20260506011037 14 229 3.2 9.7 0.00 0.41 0.33 86 1015.0
20260506010537 14 216 3.2 9.7 0.00 0.41 0.33 85 1015.0
20260506005537 14 229 4.8 9.7 0.00 0.41 0.33 85 1015.0
20260506005037 14 250 3.2 9.7 0.00 0.41 0.33 85 1015.0
20260506004550 15 240 3.2 11.3 0.00 0.41 0.33 84 1014.9
20260506004038 14 232 3.2 11.3 0.00 0.41 0.33 85 1014.9
20260506003537 14 244 4.8 11.3 0.00 0.41 0.33 84 1014.8
20260506003044 15 221 3.2 11.3 0.00 0.41 0.33 83 1014.7
20260506002538 15 255 3.2 11.3 0.00 0.41 0.33 84 1014.7
20260506002038 14 240 4.8 11.3 0.00 0.41 0.33 84 1014.7
20260506001553 14 253 6.4 12.9 0.00 0.41 0.33 84 1014.7
20260506001038 14 225 4.8 12.9 0.00 0.41 0.33 85 1014.7
20260506000539 14 236 3.2 11.3 0.00 0.41 0.33 84 1014.7
20260506000052 15 242 4.8 11.3 0.00 0.41 0.33 84 1014.7
20260505235537 15 244 6.4 11.3 0.00 0.41 0.33 84 1014.7
20260505235037 15 223 6.4 11.3 0.00 0.41 0.33 84 1014.8
20260505234605 14 232 4.8 11.3 0.00 0.41 0.33 83 1014.7
20260505234040 14 246 4.8 9.7 0.00 0.41 0.33 84 1014.7
20260505233541 14 246 4.8 9.7 0.00 0.41 0.33 83 1014.7
20260505233049 14 219 4.8 9.7 0.00 0.41 0.33 83 1014.9
20260505232537 14 231 3.2 9.7 0.00 0.41 0.33 83 1014.9
20260505232040 14 276 3.2 9.7 0.00 0.41 0.33 83 1014.9
20260505231549 15 245 4.8 11.3 0.00 0.41 0.33 82 1014.9
20260505231036 15 271 4.8 11.3 0.00 0.41 0.33 82 1014.9
20260505230537 15 252 3.2 11.3 0.00 0.41 0.33 83 1014.9
20260505230044 15 281 4.8 11.3 0.00 0.41 0.33 83 1014.9
20260505225538 15 236 4.8 11.3 0.00 0.41 0.33 83 1014.8
20260505225039 15 249 4.8 11.3 0.00 0.41 0.33 82 1014.7
20260505224546 15 223 4.8 12.9 0.00 0.41 0.33 81 1014.7
20260505224040 15 244 4.8 12.9 0.00 0.41 0.33 81 1014.8
20260505223537 15 240 6.4 9.7 0.00 0.41 0.33 80 1014.8
20260505223043 15 257 4.8 14.5 0.00 0.41 0.33 80 1014.9
20260505222540 15 225 3.2 14.5 0.00 0.41 0.33 81 1014.8
20260505222036 15 229 4.8 14.5 0.00 0.41 0.33 80 1014.8
20260505221544 15 204 4.8 11.3 0.00 0.41 0.33 81 1014.8
20260505221037 15 210 4.8 11.3 0.00 0.41 0.33 82 1014.9
20260505220539 15 216 4.8 11.3 0.00 0.41 0.33 82 1014.8
20260505220042 15 244 3.2 11.3 0.00 0.41 0.33 80 1014.9
20260505215538 15 238 4.8 12.9 0.00 0.41 0.33 79 1015.0
20260505215039 15 250 4.8 12.9 0.00 0.41 0.33 78 1015.0
20260505214604 15 288 3.2 11.3 0.00 0.41 0.33 79 1015.0
20260505214037 15 238 3.2 11.3 0.00 0.41 0.33 80 1015.0
20260505213539 15 246 3.2 11.3 0.00 0.41 0.33 82 1015.1
20260505213057 14 242 4.8 12.9 0.00 0.41 0.33 81 1015.2
20260505212537 15 252 4.8 12.9 0.00 0.41 0.33 82 1015.2
20260505212037 15 276 4.8 16.1 0.00 0.41 0.33 83 1015.3
20260505211543 15 250 3.2 16.1 0.00 0.41 0.33 83 1015.3
20260505211038 15 265 6.4 14.5 0.00 0.41 0.33 83 1015.3
20260505210536 15 316 4.8 14.5 0.00 0.41 0.33 82 1015.2
20260505210049 15 308 8.0 14.5 0.00 0.41 0.33 83 1015.2
20260505205539 15 271 3.2 12.9 0.00 0.41 0.33 82 1015.2
20260505205040 15 258 6.4 12.9 0.00 0.41 0.33 80 1015.1
20260505204554 15 246 4.8 14.5 0.00 0.41 0.33 80 1015.1
20260505204037 15 265 6.4 14.5 0.00 0.41 0.33 80 1015.1
20260505203537 15 263 3.2 14.5 0.00 0.41 0.33 80 1015.1
20260505203047 15 247 4.8 14.5 0.00 0.41 0.33 81 1015.0
20260505202537 15 254 6.4 14.5 0.00 0.41 0.33 81 1015.0
20260505202037 15 277 4.8 9.7 0.00 0.41 0.33 82 1015.1
20260505201550 14 248 4.8 11.3 0.00 0.41 0.33 81 1015.1
20260505201037 15 252 4.8 11.3 0.00 0.41 0.33 82 1015.1
20260505200537 15 278 4.8 14.5 0.00 0.41 0.33 83 1015.1
20260505200058 14 257 4.8 14.5 0.00 0.41 0.33 82 1015.1
20260505195537 15 238 6.4 12.9 0.00 0.41 0.33 82 1015.1
20260505195037 15 294 4.8 14.5 0.00 0.41 0.33 82 1015.1
20260505194549 15 217 6.4 14.5 0.00 0.41 0.33 83 1015.2
20260505194039 14 291 4.8 12.9 0.00 0.41 0.33 83 1015.1
20260505193538 14 286 4.8 12.9 0.00 0.41 0.33 83 1015.1
20260505193049 14 268 4.8 12.9 0.00 0.41 0.33 84 1015.1
20260505192536 14 248 4.8 12.9 0.00 0.41 0.33 85 1015.1
20260505192037 14 279 4.8 14.5 0.00 0.41 0.33 85 1015.1
20260505191543 14 250 4.8 14.5 0.00 0.41 0.33 86 1015.1
20260505191037 13 286 6.4 14.5 0.00 0.41 0.33 87 1015.1
20260505190537 13 281 4.8 11.3 0.00 0.41 0.33 87 1015.0
20260505190049 13 281 3.2 11.3 0.00 0.41 0.33 87 1014.9
20260505185539 13 286 3.2 12.9 0.00 0.41 0.33 87 1014.9
20260505185037 13 295 3.2 12.9 0.00 0.41 0.33 87 1014.7
20260505184547 13 262 3.2 9.7 0.00 0.41 0.33 87 1014.9
20260505184037 13 264 3.2 11.3 0.00 0.41 0.33 87 1015.0
20260505183536 13 281 3.2 12.9 0.00 0.41 0.33 87 1015.0
20260505183054 13 271 4.8 12.9 0.00 0.41 0.33 87 1015.1
20260505182537 14 319 3.2 9.7 0.00 0.41 0.33 88 1015.1
20260505182037 13 292 3.2 9.7 0.00 0.41 0.33 89 1015.0
20260505181547 13 294 3.2 6.4 0.00 0.41 0.33 89 1014.7
20260505181040 13 296 3.2 6.4 0.00 0.41 0.33 90 1014.7
20260505180541 13 275 1.6 6.4 0.00 0.41 0.33 90 1014.7
20260505180105 13 245 3.2 11.3 0.00 0.41 0.33 90 1014.6
20260505175537 13 278 3.2 11.3 0.00 0.41 0.33 91 1014.6
20260505175037 13 286 3.2 9.7 0.00 0.41 0.33 91 1014.5
20260505174600 13 292 4.8 9.7 0.00 0.41 0.33 91 1014.5
20260505174037 12 290 3.2 9.7 0.00 0.41 0.33 92 1014.5
20260505173536 12 294 3.2 9.7 0.00 0.41 0.33 92 1014.5
20260505173046 12 284 3.2 6.4 0.00 0.41 0.33 92 1014.5
20260505172536 12 305 3.2 9.7 0.00 0.41 0.33 93 1014.5
20260505172036 12 306 1.6 9.7 0.00 0.41 0.33 93 1014.6
20260505171552 12 292 1.6 6.4 0.00 0.41 0.33 93 1014.4
20260505171041 12 294 3.2 9.7 0.00 0.41 0.33 93 1014.5
20260505170537 12 313 3.2 9.7 0.00 0.41 0.33 93 1014.4
20260505170044 12 323 3.2 9.7 0.00 0.41 0.33 93 1014.4
20260505165536 12 298 1.6 6.4 0.00 0.41 0.33 93 1014.5
20260505165037 12 294 0.0 4.8 0.00 0.41 0.33 93 1014.5
20260505164548 12 294 1.6 8.0 0.00 0.41 0.33 93 1014.5
20260505164037 12 313 1.6 9.7 0.00 0.41 0.33 93 1014.5
20260505163537 12 286 3.2 9.7 0.00 0.41 0.33 93 1014.4
20260505163052 12 255 3.2 8.0 0.03 0.41 0.33 93 1014.4
20260505162538 12 254 1.6 6.4 0.05 0.41 0.33 93 1014.4
20260505162037 12 269 1.6 6.4 0.05 0.41 0.33 93 1014.4
20260505161545 12 240 1.6 4.8 0.05 0.41 0.33 93 1014.3
20260505161037 12 240 1.6 4.8 0.05 0.41 0.33 93 1014.2
20260505160537 12 240 1.6 4.8 0.05 0.41 0.33 93 1014.2
20260505153043 11 286 3.2 8.0 0.03 0.38 0.30 91 1014.0
20260505152537 11 205 4.8 8.0 0.00 0.36 0.28 91 1014.0
20260505152036 11 229 3.2 8.0 0.00 0.36 0.28 91 1013.9
20260505151549 11 214 4.8 8.0 0.00 0.36 0.28 91 1013.8
20260505151037 11 232 3.2 8.0 0.00 0.36 0.28 91 1013.8
20260505150537 11 214 3.2 8.0 0.00 0.36 0.28 91 1013.6
20260505140538 11 223 1.6 4.8 0.00 0.36 0.28 91 1013.5
20260505125040 11 240 1.6 6.4 0.00 0.36 0.28 90 1013.2
20260505124547 11 246 1.6 6.4 0.00 0.36 0.28 90 1013.2
20260505124042 11 244 3.2 6.4 0.00 0.36 0.28 90 1013.2
20260505123538 11 242 3.2 6.4 0.00 0.36 0.28 90 1013.1
20260505123100 11 261 3.2 6.4 0.00 0.36 0.28 90 1013.1
20260505122539 11 238 1.6 4.8 0.00 0.36 0.28 90 1013.1
20260505122040 11 238 1.6 4.8 0.00 0.36 0.28 91 1013.1
20260505121549 11 204 0.0 3.2 0.00 0.36 0.28 91 1013.0
20260505121039 11 204 1.6 4.8 0.00 0.36 0.28 90 1013.0
20260505120537 11 0 0.0 4.8 0.00 0.36 0.28 90 1013.0
20260505120053 11 204 1.6 6.4 0.00 0.36 0.28 90 1013.1
20260505115538 10 0 1.6 6.4 0.00 0.36 0.28 90 1013.1
20260505115039 10 204 3.2 6.4 0.00 0.36 0.28 90 1013.0
20260505114544 10 207 3.2 4.8 0.00 0.36 0.28 90 1013.1
20260505114042 10 232 1.6 3.2 0.00 0.36 0.28 90 1013.2
20260505113542 10 232 1.6 3.2 0.00 0.36 0.28 90 1013.3
20260505113044 10 260 0.0 3.2 0.00 0.36 0.28 90 1013.3
20260505112539 10 260 0.0 3.2 0.00 0.36 0.28 90 1013.4
20260505112038 10 260 1.6 3.2 0.00 0.36 0.28 90 1013.2
20260505111544 10 260 0.0 3.2 0.00 0.36 0.28 91 1013.2
20260505111039 10 0 1.6 6.4 0.00 0.36 0.28 91 1013.2
20260505110538 10 260 0.0 8.0 0.00 0.36 0.28 91 1013.2
20260505110158 10 300 1.6 8.0 0.00 0.36 0.28 91 1013.3
20260505102037 10 284 1.6 8.0 0.03 0.36 0.28 92 1013.2
20260505101548 10 263 1.6 6.4 0.03 0.36 0.28 92 1013.2
20260505101038 10 262 3.2 6.4 0.03 0.36 0.28 92 1013.4
20260505100537 10 280 1.6 6.4 0.03 0.36 0.28 92 1013.4
20260505100053 11 300 1.6 4.8 0.03 0.36 0.28 92 1013.4
20260505095538 11 275 1.6 4.8 0.03 0.36 0.28 92 1013.5
20260505095038 11 286 1.6 4.8 0.03 0.36 0.28 93 1013.4
20260505094545 11 0 1.6 6.4 0.05 0.36 0.28 93 1013.5
20260505094038 11 0 0.0 6.4 0.05 0.36 0.28 93 1013.5
20260505093538 11 228 1.6 8.0 0.08 0.36 0.28 93 1013.5
20260505093051 11 252 3.2 8.0 0.10 0.36 0.28 93 1013.6
20260505092538 11 0 0.0 3.2 0.10 0.33 0.25 93 1013.7
20260505092039 10 195 1.6 3.2 0.10 0.33 0.25 92 1013.8
20260505091606 10 195 0.0 4.8 0.10 0.33 0.25 92 1013.8
20260505091037 10 195 1.6 4.8 0.13 0.33 0.25 92 1013.9
20260505090538 10 195 3.2 4.8 0.15 0.33 0.25 92 1013.9
20260505090047 10 195 0.0 4.8 0.18 0.33 0.25 92 1013.9
20260505085541 10 0 1.6 4.8 0.20 0.33 0.25 92 1014.0
20260505085039 10 195 0.0 3.2 0.23 0.33 0.25 92 1013.9